GW7287 Weather Reports


time (UTC)temp
C
wind
direction
speed
KPH
gust
KPH
rain 1hr
cm
rain 24hr
cm
rain mn
cm
humidity
%
barometer
mb
20260507055326 8 336 1.6 8.0 0.00 0.00 0.00 87 925.5
20260507050306 8 345 1.6 4.8 0.00 0.00 0.00 85 925.5
20260507020303 10 333 1.6 8.0 0.00 0.00 0.00 80 926.0
20260507012306 10 11 1.6 6.4 0.00 0.00 0.00 73 926.3
20260506234125 11 6 1.6 11.3 0.00 0.00 0.00 67 926.3
20260506233431 11 6 1.6 11.3 0.00 0.00 0.00 67 926.3
20260506224503 11 334 1.6 8.0 0.00 0.00 0.00 63 926.3
20260506222610 12 69 1.6 3.2 0.00 0.00 0.00 58 926.6
20260506214421 12 69 1.6 8.0 0.00 0.00 0.00 58 926.6
20260506210402 13 354 1.6 8.0 0.00 0.00 0.00 57 926.2
20260506204445 13 354 1.6 3.2 0.00 0.00 0.00 57 926.2
20260506201239 10 4 3.2 6.4 0.00 0.00 0.00 73 929.0
20260506193740 15 344 1.6 6.4 0.00 0.00 0.00 48 925.9
20260506192406 7 19 1.6 4.8 0.00 0.00 0.00 82 929.1
20260506180601 4 327 1.6 3.2 0.00 0.00 0.00 93 928.8
20260506172904 4 4 1.6 4.8 0.00 0.00 0.00 93 928.4
20260506155801 5 342 3.2 4.8 0.00 0.00 0.00 90 928.9
20260506155310 5 342 3.2 4.8 0.00 0.00 0.00 90 928.9
20260506105603 7 293 3.2 6.4 0.00 0.00 0.00 79 929.3
20260506104602 7 293 3.2 6.4 0.00 0.00 0.00 79 929.3